Location: Bourg-le-Bec
(45.5432°N, 1.9123°E)
Time: 19:46:20
(UTC+00:00)

Daily predictions for brighter satellites

Satellite Brightness Start Highest point End
(mag) Time Altitude Azimuth Time Altitude Azimuth Time Altitude Azimuth
Cosmos 773 Rocket 4.2 19:42:06 10° NNW 19:47:25 78° WSW 19:52:40 10° SSE
Cosmos 1782 2.8 19:45:15 10° S 19:49:13 80° E 19:53:12 10° N
Resurs 1-3 3.7 19:45:46 10° SSE 19:50:05 62° ENE 19:54:26 10° N
IRS-1A Rocket 4.4 19:45:36 10° SSE 19:51:24 77° ENE 19:57:20 10° NNW
ERBS 4.4 19:49:29 10° NNW 19:51:58 19° NNE 19:54:27 10° ENE
Meteor 1-5 Rocket 4.5 19:50:33 10° N 19:55:43 48° ENE 20:00:49 10° SSE
OBJECT-B 1.6 19:53:47 10° S 19:56:57 51° W 20:00:09 10° NNW
USA 308 3.2 19:53:31 10° WNW 19:57:46 62° SW 20:02:00 10° SE
ARIANE 5 R/B 4.4 19:56:41 10° ESE 19:59:29 17° ENE 20:02:18 10° NNE
Akebono 3.8 19:58:50 10° NNW 20:00:56 80° WSW 20:03:13 10° SSE
SJ-6B 3.6 19:58:04 10° S 20:01:56 53° W 20:05:55 10° NNW
USA 186 3.6 20:00:24 10° SSW 20:02:13 19° W 20:03:59 10° NW
Cosmos 1538 Rocket 4.1 19:58:38 10° NNW 20:04:00 80° ENE 20:09:17 10° SSE
ISS -3.7 20:03:25 10° SW 20:06:43 55° SE 20:10:01 10° ENE
OAO 3 Rocket 4.5 20:07:19 10° SW 20:10:50 21° S 20:14:01 11° SE
Cosmos 1709 Rocket 4.2 20:05:02 10° NNW 20:11:07 72° W 20:17:12 10° S
Meteor 1-11 Rocket 4.5 20:07:56 10° N 20:13:31 40° ENE 20:18:41 11° SE
Cosmos 2082 Rocket 2.3 20:10:47 10° NNW 20:16:26 69° ENE 20:21:45 11° SE
Cosmos 1680 Rocket 4.3 20:12:41 10° N 20:17:39 38° ENE 20:22:04 13° SE
SPOT 3 Rocket 3.6 20:13:04 10° SSE 20:18:09 66° ENE 20:23:16 10° N
Cosmos 1943 Rocket 3.4 20:15:03 10° SSE 20:19:14 22° E 20:23:25 10° NE
CZ-4C R/B 3.6 20:13:54 10° NW 20:21:04 54° WSW 20:29:13 10° SSE
Cosmos 1461 4.4 20:17:32 10° SSE 20:21:06 22° ESE 20:24:39 10° ENE
Cosmos 2074 Rocket 4.2 20:16:11 10° N 20:22:24 56° ENE 20:28:25 11° SSE
Cosmos 2184 Rocket 4.2 20:18:40 10° N 20:24:46 56° ENE 20:30:30 11° SSE
Cosmos 44 3.9 20:24:13 10° NNW 20:29:35 56° NE 20:33:48 15° SE
BREEZE-M R/B 3.5 20:28:10 10° WNW 20:30:30 31° N 20:32:50 10° ENE
NOSS 3-4 (A) 4.0 20:25:24 10° NW 20:32:26 80° SW 20:39:25 14° SSE
NOSS 3-4 (C) 4.0 20:25:31 10° NW 20:32:33 80° SW 20:39:31 14° SSE
Ariane Rocket 3.9 20:29:12 10° S 20:34:04 48° W 20:38:59 10° NNW
USA 305 4.2 20:30:52 10° WNW 20:34:37 30° SW 20:37:52 13° SSE
Iridium 4 Rocket 4.0 20:29:12 10° SSE 20:34:56 59° E 20:40:43 10° N
Cosmos 1271 Rocket 2.7 20:31:39 10° S 20:35:37 73° E 20:39:38 10° NNE
Cosmos 1515 Rocket 3.8 20:32:14 10° SSW 20:36:37 74° W 20:41:01 10° N
Meteor 1-10 Rocket 4.2 20:31:09 10° S 20:36:43 72° E 20:42:25 10° NNE
Cosmos 2278 Rocket 3.1 20:34:56 10° SW 20:40:28 53° WNW 20:46:01 10° NNE
COSMOS 2406 4.3 20:35:59 10° NW 20:41:16 41° WSW 20:46:33 10° S
Cosmos 1536 3.5 20:38:18 10° N 20:42:06 39° ENE 20:44:24 20° SE
Cosmos 990 Rocket 4.1 20:38:28 10° S 20:43:34 57° ESE 20:48:43 10° NNE
Cosmos 1869 Rocket 3.9 20:39:30 10° N 20:43:44 48° ENE 20:46:32 20° SE
Cosmos 2369 Rocket 3.6 20:42:46 16° ESE 20:44:29 19° E 20:48:16 10° ENE
Cosmos 2228 Rocket 3.2 20:40:36 12° S 20:44:39 57° E 20:49:04 10° NNE
ATLAS 2AS CENTAUR R/B 2.8 20:38:23 10° NW 20:45:49 79° NE 20:51:07 18° SE
Cosmos 158 Rocket 4.0 20:41:24 10° NNW 20:46:17 71° WSW 20:50:26 15° S
Cosmos 1666 3.0 20:45:29 10° NNW 20:49:10 61° W 20:52:23 13° S
Resurs 01 Rocket 2.2 20:45:05 10° S 20:49:26 55° W 20:53:49 10° NNW
Cosmos 1898 Rocket 3.7 20:44:39 10° S 20:49:46 52° ESE 20:54:57 10° NNE
Tianhe-1 1.6 20:53:04 10° WSW 20:56:01 37° S 20:56:44 32° SE
Cosmos 923 Rocket 4.1 20:51:05 10° NNW 20:56:23 83° WSW 21:00:15 19° SSE
Meteor 2-12 Rocket 4.4 20:51:47 10° N 20:57:52 77° E 21:02:32 18° SSE
Terra 2.9 20:55:27 19° ESE 20:58:02 32° ENE 21:02:14 10° N
Cosmos 1812 4.4 20:55:42 10° SW 20:59:14 34° WNW 21:02:47 10° N
Cosmos 1707 Rocket 4.3 20:58:17 24° SE 21:00:12 35° E 21:04:14 10° NNE
CARTOSAT-1 3.6 20:58:59 24° SSE 21:01:30 62° ENE 21:05:47 10° N
SL-24 R/B - RUBIN 2 3.9 20:57:49 10° NW 21:03:17 87° WSW 21:06:09 25° SSE
Cosmos 1818 3.7 20:58:48 10° NNW 21:04:17 67° NE 21:07:40 23° SE
Cosmos 1900 4.3 21:00:11 10° SSW 21:05:17 86° ESE 21:10:22 10° NE
Cosmos 2084 Rocket 3.4 21:02:01 10° NW 21:06:18 82° NE 21:08:37 28° SE
Cosmos 1833 Rocket 4.4 21:02:17 10° NW 21:06:52 26° WSW 21:11:24 10° SSW
DNEPR-1 R/B 4.0 21:01:21 10° SSW 21:07:25 69° ESE 21:12:26 10° NE
JB-3 4.2 21:04:13 10° NNE 21:08:02 61° E 21:10:00 26° S
CZ-2C R/B 3.5 21:08:30 10° SSW 21:08:34 10° SSW 21:08:34 10° SSW
SJ 16-02 3.4 21:08:41 10° WSW 21:12:35 30° WNW 21:16:31 10° N
RESURS DK-1 4.3 21:10:36 10° N 21:13:41 20° NE 21:15:50 14° E
Cosmos 2341 Rocket 4.3 21:16:42 10° N 21:23:00 56° ENE 21:26:26 27° SE
Meteor 1-27 Rocket 4.0 21:17:57 10° SSW 21:23:48 77° W 21:29:47 10° N
Cosmos 1743 2.8 21:20:00 10° N 21:23:51 63° E 21:25:04 40° SE
Milstar 3 4.4 21:13:57 10° WSW 21:27:08 33° SSW 21:31:31 24° SSE
Cosmos 1733 Rocket 3.5 21:23:17 10° N 21:27:28 46° ENE 21:28:47 35° SE
ERBS 2.1 21:25:08 10° NW 21:28:27 83° SW 21:29:01 58° SE
ERS-1 Rocket 2.9 21:29:16 30° SSE 21:31:50 89° WSW 21:36:54 10° NNW
SL-24 DEB 4.1 21:29:48 33° SSE 21:31:51 78° E 21:36:29 10° N
SPOT 5 3.0 21:30:45 29° SSE 21:33:30 88° WSW 21:38:54 10° NNW
Cosmos 2112 Rocket 4.4 21:29:26 10° NNW 21:34:44 60° WSW 21:37:35 27° S
ARIANE 5 R/B 3.1 21:33:19 26° SSW 21:35:32 54° W 21:39:49 10° NNW
USA 245 4.3 21:37:23 18° WSW 21:37:38 18° W 21:39:26 10° NW
Meteor 1-19 Rocket 4.4 21:35:59 33° SE 21:37:58 48° E 21:43:10 10° NNE
SL-8 Rocket 4.2 21:32:35 10° N 21:38:51 58° ENE 21:41:47 31° SE
Cosmos 1238 Rocket 3.6 21:33:42 10° N 21:39:20 60° ENE 21:41:08 37° SE
Spot 2 Rocket 4.1 21:38:05 22° SSW 21:41:06 49° W 21:46:01 10° NNW
Cosmos 1937 Rocket 3.5 21:38:08 13° SSW 21:42:41 78° WNW 21:47:53 10° NNE
ISS -2.2 21:40:29 10° W 21:43:39 37° NNW 21:46:49 10° NE
Cosmos 2297 4.2 21:40:48 10° SW 21:46:26 61° WNW 21:52:05 10° NNE
Gbstr 26 Del rocket 4.2 21:42:51 10° WNW 21:50:25 69° SW 21:53:23 34° SE
Cosmos 1340 Rocket 3.7 21:48:56 10° NNW 21:52:49 44° W 21:54:15 30° SW
Okean 1 3.2 21:55:06 54° S 21:55:58 89° E 21:59:58 10° N
Cosmos 1515 3.8 21:56:48 48° SSW 21:57:43 70° W 22:01:30 10° N
H-2A R/B 3.4 21:53:48 10° NNE 21:58:00 87° W 21:59:12 46° SSW
Cosmos 1867 3.5 21:56:30 32° S 21:58:57 64° ESE 22:04:22 10° NE
Cosmos 1461 3.8 21:55:14 10° SW 21:59:51 55° NW 22:04:24 10° NNE
Cosmos 2082 Rocket 4.2 21:56:06 10° WNW 21:59:54 19° W 22:03:36 10° SW
Lacrosse 5 3.6 22:02:09 18° E 22:02:09 18° E 22:04:03 10° ENE
Cosmos 1943 Rocket 2.6 21:56:57 10° SW 22:02:30 60° WNW 22:08:03 10° NNE
Cosmos 864 Rocket 4.5 21:57:21 10° N 22:03:30 69° E 22:05:51 39° SSE
Cosmos 1048 Rocket 4.5 21:59:21 10° NNW 22:04:31 50° ENE 22:06:10 37° ESE
Cosmos 1959 Rocket 4.4 21:59:50 10° N 22:06:03 74° E 22:08:25 40° SSE
Cosmos 2242 Rocket 4.4 22:05:59 35° E 22:06:07 35° E 22:10:13 10° NNE
Okean 1-7 3.9 22:08:56 33° E 22:08:56 33° E 22:12:42 10° NNE
Cosmos 1656 Rocket 3.7 22:08:33 45° SSE 22:09:50 56° ESE 22:15:15 10° NNE
ATLAS CENTAUR R/B 1.6 22:11:29 45° ENE 22:11:29 45° ENE 22:14:21 10° NE
Cosmos 1862 Rocket 3.7 22:14:36 46° SW 22:15:44 68° W 22:20:03 10° N
SL-27 R/B 3.5 22:12:43 10° N 22:15:31 33° NE 22:15:31 33° NE
Cosmos 1703 Rocket 4.1 22:17:22 43° E 22:17:24 43° E 22:21:37 10° NNE
Cosmos 1782 Rocket 4.4 22:16:58 10° N 22:21:04 36° ENE 22:21:28 35° E
Cosmos 372 Rocket 4.2 22:18:25 26° SW 22:21:11 64° WNW 22:26:16 10° NNE
Cosmos 1607 3.9 22:22:47 22° SSW 22:27:09 89° SE 22:33:42 10° NE
Cosmos 2369 Rocket 2.4 22:24:29 25° SW 22:27:52 70° WNW 22:33:32 10° NNE
BREEZE-M DEB (TANK) 4.3 22:29:27 10° W 22:29:33 11° W 22:29:33 11° W
Cosmos 44 Rocket 3.8 22:29:57 10° NNW 22:35:07 58° NE 22:36:33 42° ESE
Terra 3.1 22:34:20 26° SW 22:35:44 31° W 22:39:59 10° NNW
ATLAS 2AS CENTAUR R/B 4.1 22:30:30 10° WNW 22:35:54 24° WSW 22:38:33 19° SW
Cosmos 1975 3.1 22:33:17 10° NNW 22:37:11 55° W 22:37:19 54° WSW
Cosmos 2344 4.5 22:28:12 10° NW 22:37:20 70° NE 22:46:12 22° SE
Cosmos 2298 Rocket 3.9 22:36:27 54° S 22:37:42 83° ESE 22:43:01 10° NNE
Cosmos 494 Rocket 4.0 22:34:30 10° NNW 22:39:42 73° ENE 22:40:39 57° SE
Cosmos 1821 Rocket 4.2 22:34:28 10° N 22:40:51 63° ENE 22:42:44 44° SE
Cosmos 2366 rocket 4.3 22:36:12 10° NNW 22:42:18 60° W 22:44:34 38° SSW
Cosmos 724 4.4 22:45:27 51° SSE 22:46:44 62° ESE 22:52:55 10° NE
RESURS DK-1 2.9 22:47:57 10° NW 22:51:42 49° W 22:51:42 49° W
NOSS 2-1 (C) 4.4 22:52:56 10° NNW 22:57:47 67° NE 22:59:58 40° ESE
Okean 3 3.7 22:59:12 58° ENE 22:59:12 58° ENE 23:03:00 10° NNE
Cosmos 1378 3.8 23:00:27 51° NNE 23:00:27 51° NNE 23:03:23 10° NNE
Cosmos 1356 Rocket 3.5 22:55:33 10° N 22:59:46 70° ENE 22:59:46 70° ENE
Cosmos 2150 Rocket 4.3 23:02:51 43° SW 23:04:28 64° WNW 23:09:43 10° NNE
NOSS 2-1 (D) 4.3 22:59:46 10° NW 23:04:40 75° NE 23:06:38 45° SE
COSMOS 2487 3.9 23:03:07 10° N 23:05:34 32° NE 23:05:34 32° NE
Cosmos 1805 4.1 23:03:48 10° N 23:07:04 41° NE 23:07:04 41° NE
ALOS 2 2.6 23:08:32 70° E 23:08:34 70° ENE 23:12:57 10° N
Cosmos 1125 Rocket 3.6 23:07:51 54° SW 23:08:59 73° WNW 23:14:13 10° NNE
Cosmos 1066 Rocket 4.2 23:09:13 58° SE 23:10:05 67° E 23:15:39 10° NNE
Meteor 1-12 Rocket 4.2 23:05:19 10° NNW 23:11:10 87° WSW 23:12:15 61° S
Spot 4 4.1 23:17:18 55° WSW 23:17:37 56° W 23:22:24 10° NNW
Cosmos 2227 Rocket 4.2 23:13:55 10° N 23:18:17 22° NE 23:22:33 10° E
Cosmos 1300 Rocket 3.7 23:14:23 10° N 23:18:37 61° ENE 23:18:37 61° ENE
Cosmos 2297 Rocket 3.8 23:15:38 10° N 23:20:29 28° NE 23:23:53 16° E
ISS -1.7 23:18:03 10° WNW 23:21:02 28° N 23:22:53 17° NE
COSMOS 2455 3.7 23:16:27 10° NNW 23:22:14 45° NE 23:25:11 26° ESE
Meteor 1-15 Rocket 4.3 23:18:01 10° N 23:23:48 75° E 23:24:55 58° SE
Nadezhda 3 Rocket 4.1 23:25:32 47° SW 23:27:18 69° W 23:33:30 10° N
Cosmos 1766 4.0 23:23:45 10° N 23:27:05 46° NE 23:27:05 46° NE
Sich 1 Rocket 3.6 23:34:20 10° NNW 23:38:42 71° WNW 23:38:42 71° WNW
BREEZE-M DEB (TANK) 4.0 23:29:41 10° WNW 23:41:06 53° SW 23:41:14 53° SW
Lacrosse 5 2.0 23:41:17 49° WSW 23:42:33 71° NW 23:47:39 10° NE
Cosmos 1470 4.2 23:43:25 10° NNE 23:46:48 29° ENE 23:46:48 29° ENE
Cosmos 1605 Rocket 4.1 23:40:54 10° N 23:47:12 72° E 23:48:50 51° SE
Okean 2 Rocket 3.1 23:44:21 10° N 23:48:30 76° NW 23:48:30 76° NW
SeaSat 1 3.6 23:44:50 10° NE 23:48:47 30° E 23:48:47 30° E
ATLAS CENTAUR R/B 3.8 23:47:33 11° WNW 23:49:53 18° NW 23:52:31 10° N
Cosmos 2151 Rocket 3.6 23:46:32 10° N 23:50:56 81° NE 23:50:56 81° NE
Resurs 1-4 Rocket 4.5 23:53:42 10° ENE 23:54:59 11° E 23:56:14 10° E
